Location: Newark
(18.7969°S, 47.4789°E)
Time: 00:14:28
(UTC+00:00)

LightSail 2 - Visible Passes

Search period start: 19 January 2020 00:00
Search period end: 29 January 2020 00:00
Orbit: 703 x 721 km, 24.0° (Epoch: 18 January)

Date Brightness Start Highest point End Pass type
(mag) Time Alt. Az. Time Alt. Az. Time Alt. Az.
19 Jan 6.8 00:25:21 22° NE 00:25:21 22° NE 00:28:41 10° ENE visible
20 Jan 5.5 01:09:27 30° NW 01:11:40 50° NNE 01:16:38 10° E visible
21 Jan 6.4 00:14:35 31° NE 00:14:35 31° NE 00:17:59 10° E visible
21 Jan 5.2 01:53:32 10° WNW 01:58:41 82° SSW 02:03:50 10° ESE visible
22 Jan 5.1 00:58:37 44° WNW 01:00:13 79° NNE 01:05:22 10° ESE visible
23 Jan 6.4 00:03:41 36° E 00:03:41 36° E 00:06:50 10° E visible
23 Jan 5.5 01:42:37 12° W 01:47:19 61° S 01:52:24 10° ESE visible
24 Jan 5.2 00:47:40 54° W 00:48:47 74° SSW 00:53:56 10° ESE visible
24 Jan 6.7 23:52:42 32° ESE 23:52:42 32° ESE 23:55:26 10° ESE visible
25 Jan 5.8 01:31:38 14° W 01:35:56 50° S 01:40:57 10° ESE visible
26 Jan 5.5 00:36:40 52° SW 00:37:21 56° S 00:42:25 10° ESE visible
26 Jan 7.1 23:41:43 25° ESE 23:41:43 25° ESE 23:43:54 10° ESE visible
27 Jan 5.9 01:20:39 16° WSW 01:24:34 46° S 01:29:31 10° ESE visible
28 Jan 5.8 00:25:43 48° SSW 00:25:55 48° S 00:30:55 10° ESE visible
28 Jan 5.9 02:06:43 10° WSW 02:11:47 52° S 02:16:48 10° E visible
28 Jan 7.6 23:30:49 19° ESE 23:30:49 19° ESE 23:32:19 10° ESE visible
